Wind_Speed
15 14 14 13 12 12 12 12 11 11 11 10 10 10 10 9 9 10 12 13 14 14 13 13 12 12 11 11 12 12 12 13 13 14 14 14 14 14 14 14 14 15 16 17 17 17 17 17 17 16 16 16 16 16 16 16 16 16 16 17 17 18 19 20 20 20 20 20 20
15 14 13 13 12 12 11 11 11 11 11 11 10 10 9 9 9 10 12 14 14 14 13 13 12 11 11 12 12 11 11 10 10 10 10 10 10 10 10 10 10 12 14 15 16 15 15 14 14 14 13 13 13 13 13 12 12 13 14 14 14 15 15 16 17 18 18 18 18
15 14 14 13 12 12 11 11 11 12 12 12 11 10 9 9 9 10 12 14 14 14 14 14 14 13 13 13 12 12 11 9 7 6 6 7 7 8 8 8 9 11 13 14 14 13 12 11 10 10 10 9 9 9 9 9 9 9 10 11 12 12 13 14 15 15 15 15 15
14 14 13 13 13 12 12 11 12 12 12 12 11 10 9 9 10 12 13 13 13 13 14 14 14 13 13 12 12 11 10 9 7 6 6 6 8 9 11 12 13 13 13 12 11 10 9 8 7 7 7 6 6 7 7 8 8 8 9 9 10 10 11 12 13 13 13 13 14
13 13 13 13 13 13 12 11 11 11 11 11 10 10 10 10 12 13 14 14 13 13 13 13 13 12 11 10 8 7 8 9 10 10 11 11 12 13 13 12 11 10 9 9 8 7 6 6 5 5 5 5 5 6 6 6 7 7 8 8 8 9 9 10 11 11 12 12 12
13 13 13 13 13 12 12 11 11 10 10 9 9 10 11 12 13 14 14 13 13 13 12 12 12 10 8 6 5 7 9 11 12 12 12 12 12 11 10 8 7 7 6 5 5 4 4 3 4 4 4 4 5 5 5 5 6 6 6 7 7 8 8 8 9 10 10 11 11
12 13 13 12 12 12 11 10 10 9 9 9 9 9 10 12 13 13 13 12 12 11 10 9 8 7 6 5 5 8 10 12 12 12 11 10 9 8 7 6 5 5 4 4 4 3 2 1 2 3 4 4 5 4 4 4 4 4 5 5 6 6 7 8 9 9 9 10 10
11 12 12 12 12 11 11 10 9 9 8 8 9 9 10 10 11 11 11 10 9 7 6 6 6 5 4 3 3 5 8 9 10 9 8 7 7 6 5 5 4 4 4 3 3 2 1 1 2 2 3 3 4 4 3 3 4 4 4 5 5 6 7 8 9 9 9 8 8
10 11 11 11 11 11 10 10 9 9 9 9 9 9 9 9 10 10 10 9 7 5 4 4 5 5 5 6 7 8 9 8 7 7 7 6 5 3 3 3 4 4 3 2 2 2 1 1 2 2 2 3 3 2 2 3 4 4 5 5 6 6 7 7 7 7 7 7 7
10 10 10 10 11 11 10 10 9 9 9 8 8 7 7 9 9 9 9 8 7 5 4 4 5 6 7 8 9 9 8 6 5 4 4 3 2 3 4 4 4 4 3 2 2 2 1 1 1 1 2 2 2 2 3 4 4 4 5 6 6 6 5 5 5 5 6 6 7
9 10 10 10 11 11 10 10 9 9 8 7 6 6 7 8 8 8 8 7 6 5 6 7 8 8 8 8 7 6 4 3 2 2 3 3 4 5 5 5 5 4 3 2 2 2 1 1 0 1 2 2 3 3 4 5 5 4 4 5 5 5 5 5 5 5 5 6 6
10 10 10 10 11 11 10 9 8 7 6 5 5 5 7 8 8 8 8 7 7 7 8 8 8 7 6 5 4 2 2 3 4 5 5 5 5 5 5 5 4 4 3 2 2 3 2 1 0 1 2 3 3 3 4 4 4 4 4 4 5 5 5 5 5 5 5 5 6
11 11 10 10 10 10 9 8 7 6 6 5 5 5 6 8 8 7 7 7 7 7 7 6 5 4 3 2 2 3 4 5 6 6 6 6 6 5 4 4 3 3 2 2 2 2 2 0 1 1 2 2 2 3 3 3 4 4 4 5 5 5 5 5 5 5 5 5 6
11 10 10 10 10 9 8 7 7 6 6 6 6 6 6 6 6 5 5 5 5 4 4 3 2 0 1 3 4 5 6 6 6 6 6 6 5 5 4 3 3 3 3 2 2 2 1 0 0 1 1 2 2 2 3 3 3 3 4 4 4 4 4 5 5 5 5 5 5
10 10 10 9 9 9 8 8 7 7 6 6 6 5 5 4 4 4 3 3 2 2 2 2 2 3 4 5 6 6 6 6 6 6 6 5 5 5 4 4 4 4 4 3 3 2 2 2 2 1 1 1 1 2 2 2 2 2 2 3 3 3 4 4 4 5 5 5 5
11 10 9 9 9 9 8 8 7 7 6 6 5 4 4 3 3 3 3 3 3 4 4 4 5 6 6 7 7 7 7 7 7 6 6 5 5 5 5 5 4 4 4 4 3 3 3 3 2 1 1 1 1 1 2 2 2 2 3 3 3 4 4 4 5 5 6 6 6
11 11 10 10 9 9 9 8 8 7 7 6 6 5 5 5 5 5 5 5 6 6 7 7 7 8 8 8 8 8 8 8 7 7 6 6 5 5 5 4 4 3 3 3 2 2 1 1 1 1 1 1 1 1 2 2 2 2 3 3 4 5 5 6 6 6 7 7 7
13 13 12 12 11 11 11 10 10 9 9 8 8 8 8 8 8 8 8 8 8 8 9 9 9 9 9 9 8 8 8 8 7 7 7 6 6 5 5 4 3 3 2 2 2 2 1 1 1 1 1 1 1 2 2 3 3 4 4 5 6 6 7 7 7 7 7 7 7
15 14 14 14 14 13 13 12 12 11 11 11 10 10 10 10 10 11 11 11 10 10 10 10 10 10 9 9 9 8 8 8 7 7 7 6 6 6 5 5 4 4 3 3 3 3 3 3 2 2 2 2 2 3 4 4 5 5 6 6 7 7 7 7 7 7 7 7 7
16 16 16 16 15 15 15 14 13 13 13 12 12 12 12 12 12 12 12 12 11 11 11 11 10 10 9 9 9 9 9 8 8 8 8 8 8 8 7 7 6 5 5 5 5 4 4 4 3 3 4 4 4 5 5 6 6 6 6 7 7 7 7 8 8 8 8 8 8
18 18 17 17 16 16 16 15 15 15 14 14 14 14 14 14 14 14 14 13 12 12 11 11 11 11 10 10 10 11 11 10 10 10 10 9 9 9 9 8 7 6 6 5 5 5 5 5 5 5 5 5 5 6 6 7 7 7 7 7 7 8 8 8 8 8 8 8 8
19 19 18 18 17 17 17 16 16 16 16 16 16 15 15 15 15 14 14 13 13 13 12 12 12 12 12 12 12 12 12 12 12 11 11 10 10 10 9 8 8 7 7 7 6 6 6 6 6 6 6 6 6 7 7 7 8 8 8 8 8 8 8 8 8 8 8 8 8
20 20 19 19 18 18 18 18 17 17 17 17 17 16 16 16 15 15 14 14 14 14 14 14 14 14 13 13 13 13 13 13 13 12 11 11 11 10 9 8 8 8 8 8 8 7 7 7 7 7 7 7 8 8 8 8 8 8 8 8 9 9 9 9 9 9 8 8 8
21 21 20 20 19 19 19 19 19 18 18 18 17 17 16 16 16 15 15 15 15 15 15 15 15 15 15 15 14 14 14 14 13 13 12 12 11 11 10 9 9 9 9 9 8 8 7 7 7 8 8 9 9 9 9 9 9 9 8 8 9 9 9 9 9 9 9 9 8
22 22 21 21 21 20 20 19 19 19 19 18 18 17 17 16 16 16 16 16 16 16 16 16 16 16 16 16 15 15 14 14 13 13 13 12 12 11 11 10 10 10 9 9 8 8 8 8 8 9 10 10 10 9 9 9 9 9 8 8 9 9 9 9 8 8 8 9 9
22 22 22 21 21 21 20 20 19 19 19 18 18 17 17 17 17 17 17 17 17 17 17 17 17 16 16 16 15 15 14 14 13 13 12 12 12 12 11 11 10 9 9 9 8 8 9 9 10 10 11 11 9 8 8 8 9 9 9 9 9 9 9 8 8 8 8 9 9
23 23 22 21 21 21 20 20 19 19 19 18 18 18 18 18 18 18 18 18 18 17 17 17 17 17 16 16 15 15 14 14 13 13 12 12 12 12 11 11 10 9 9 8 8 9 9 10 11 12 12 11 9 8 7 7 8 8 9 9 9 9 9 9 9 9 9 9 9
22 22 22 21 21 21 20 19 19 19 19 19 19 19 19 18 18 18 18 18 17 17 17 17 17 17 16 15 15 14 14 14 13 13 13 12 12 12 11 10 9 9 8 7 8 8 9 10 12 13 13 11 10 8 8 7 7 7 8 8 9 9 9 9 9 10 10 10 10
22 22 22 21 21 21 20 20 20 20 20 20 20 20 19 19 19 18 18 18 17 17 16 16 16 16 15 15 15 14 14 13 13 13 13 12 12 12 12 11 9 8 7 7 7 8 9 10 12 13 13 12 9 8 7 7 7 7 7 8 9 9 9 9 10 10 10 11 11
22 22 22 21 21 21 21 21 21 20 20 20 20 20 20 20 19 18 18 17 17 16 16 16 16 16 15 15 14 14 14 13 13 13 12 12 12 12 11 10 9 8 7 7 7 8 9 10 12 13 13 12 10 8 7 7 7 7 8 8 9 10 10 10 10 11 11 11 11
22 22 22 22 21 21 21 21 21 21 21 20 20 20 20 20 19 18 18 17 17 16 16 16 16 16 15 15 14 14 13 13 12 12 12 12 11 11 11 10 9 8 7 7 7 8 9 10 11 12 13 12 10 9 8 7 7 7 8 9 10 10 10 10 10 11 12 12 12
23 23 22 22 22 22 22 22 21 21 21 21 21 20 20 20 19 18 17 17 17 16 16 16 16 16 15 14 14 13 13 12 12 12 11 11 11 11 11 10 10 9 7 7 7 7 8 10 11 12 12 12 10 9 8 7 7 7 8 8 10 11 11 11 12 13 13 13 12
23 23 23 23 22 22 22 22 21 21 21 21 21 20 20 20 19 18 17 17 16 16 16 16 16 15 15 14 14 13 13 12 12 11 11 11 11 11 10 10 10 9 8 7 7 7 8 9 11 12 12 11 10 9 8 8 7 7 8 8 9 10 11 12 13 14 15 15 13
23 23 23 23 23 23 23 22 22 21 21 21 20 20 20 19 19 19 18 17 16 16 15 15 15 14 14 13 13 13 12 12 11 11 10 10 10 11 10 10 9 9 8 8 7 7 8 9 10 11 11 11 9 8 8 8 7 8 8 8 9 9 10 11 13 15 16 16 14
23 24 23 23 23 23 22 22 22 21 21 21 20 20 19 19 19 18 17 16 16 15 15 15 14 14 14 13 13 12 12 12 11 10 10 10 10 11 11 11 10 10 9 8 8 7 8 9 10 11 11 9 8 8 7 7 7 8 8 9 9 10 10 11 12 14 16 16 15
24 24 24 23 23 23 22 22 22 21 21 20 20 19 19 18 18 17 16 15 15 15 15 15 14 14 14 13 13 12 12 11 11 11 11 11 11 11 11 11 11 11 10 9 8 8 8 9 10 11 10 9 8 7 7 7 8 8 9 9 10 10 11 11 11 13 15 17 16
24 24 24 23 23 22 22 22 21 21 21 20 20 19 19 18 18 16 15 15 15 16 16 15 14 14 13 13 12 12 12 11 11 11 11 11 11 11 11 11 11 11 11 10 9 9 9 9 10 10 10 9 8 8 7 7 8 8 9 10 10 11 11 11 11 12 14 16 16
23 24 24 23 23 22 22 21 21 21 21 20 19 19 19 18 17 16 15 14 15 16 16 15 14 14 13 12 12 12 12 12 12 12 11 11 11 11 11 11 11 11 11 11 10 10 10 10 10 10 10 9 9 8 7 8 8 9 10 10 10 11 11 11 11 11 12 14 15
23 23 24 23 23 22 22 21 21 21 21 20 19 19 19 18 17 16 15 14 14 14 15 15 14 13 12 12 12 12 12 13 13 12 12 12 12 12 11 11 11 11 11 12 11 11 11 11 11 11 11 10 9 8 8 8 8 9 10 10 11 11 11 11 11 11 12 14 14
23 23 23 23 23 22 22 21 21 21 20 20 19 19 19 18 17 16 15 14 14 13 14 14 13 13 12 12 12 12 12 12 13 13 13 13 13 13 12 11 11 11 12 12 12 12 12 12 12 12 11 11 10 9 8 8 8 10 10 11 11 11 11 11 11 11 12 13 14
23 23 23 23 23 22 22 22 21 20 20 19 19 19 18 17 16 15 15 14 14 13 13 13 12 12 12 12 12 13 13 13 13 13 13 13 13 12 12 11 11 11 12 12 13 13 13 13 13 13 12 11 10 9 9 9 9 10 11 12 12 11 12 12 12 12 12 12 13
Wind_Direction
208 207 207 206 205 205 208 211 212 213 214 215 216 217 219 220 222 226 233 241 246 250 254 258 261 262 262 266 272 278 282 285 286 286 285 283 281 281 282 282 281 282 286 289 292 294 296 298 300 301 300 301 302 303 303 303 303 303 304 305 305 305 303 299 295 293 290 288 287
207 206 206 204 204 204 206 209 211 212 215 216 218 219 220 221 223 228 237 244 249 251 254 256 259 262 268 276 281 281 279 276 275 278 281 282 281 281 282 280 277 279 284 291 296 300 303 306 309 310 311 312 313 312 311 312 313 313 312 311 310 309 306 301 298 296 295 292 290
206 205 204 203 203 203 205 209 212 214 217 219 220 221 221 222 224 230 238 246 251 254 256 259 263 268 275 281 283 279 273 266 262 264 270 275 277 278 277 274 270 276 285 295 302 308 311 316 320 323 324 323 321 318 315 316 319 318 314 311 310 309 305 299 298 298 297 296 295
204 204 204 204 204 205 207 210 214 216 218 220 221 220 220 221 226 233 240 246 251 255 259 263 267 271 275 278 279 276 270 264 259 259 262 268 271 274 276 279 280 285 293 302 310 317 323 329 334 337 337 333 324 317 315 315 316 317 315 312 310 307 303 300 300 300 299 299 299
202 202 204 205 206 207 210 212 214 215 215 216 218 219 220 223 230 237 243 246 249 255 261 266 270 271 272 273 272 268 264 266 270 274 276 277 278 281 285 291 295 301 307 315 323 332 341 347 349 348 345 337 326 317 311 310 312 313 314 313 311 309 305 301 301 301 302 302 303
200 202 204 206 207 208 210 213 213 212 210 211 214 218 223 230 236 242 246 248 250 255 261 267 269 269 267 264 259 259 266 276 285 290 291 292 293 296 301 307 314 321 329 339 350 3 8 1 349 342 337 331 320 311 306 304 303 302 302 301 301 303 304 301 302 306 309 309 310
199 201 203 206 206 207 209 210 210 208 208 209 213 218 225 234 242 247 249 250 251 254 259 261 260 258 256 257 263 272 281 289 295 298 299 301 306 313 324 337 348 357 6 20 29 34 32 8 330 323 321 320 317 313 307 303 296 292 288 285 285 294 303 308 315 320 322 321 321
198 200 202 204 204 206 206 206 205 204 206 212 217 221 225 233 242 248 249 246 244 245 246 247 247 247 245 247 255 277 291 299 302 305 309 315 322 334 351 9 24 34 42 49 51 50 45 359 336 327 312 303 311 315 310 304 305 299 292 289 290 301 316 329 333 331 328 324 321
193 197 199 200 202 203 204 204 204 205 210 217 222 222 221 225 237 243 243 237 232 231 236 244 251 251 252 257 265 278 290 300 306 312 318 325 337 1 34 59 70 74 75 79 72 67 50 20 360 337 305 297 306 305 300 307 314 309 304 310 317 326 332 332 328 322 317 315 315
188 191 194 197 200 201 202 204 206 210 214 218 220 218 217 223 233 239 239 236 234 232 232 241 255 266 273 279 287 295 302 309 314 324 335 354 38 80 96 103 104 100 94 94 91 85 71 42 344 289 282 289 298 301 308 319 325 324 323 329 332 328 319 312 310 308 309 311 314
184 188 191 194 200 203 204 205 208 210 212 212 206 206 211 219 224 228 231 232 226 228 240 255 269 280 289 297 305 312 324 348 27 57 80 98 106 110 113 113 109 102 97 100 112 124 133 151 236 271 287 306 323 326 326 329 332 330 323 321 320 320 321 322 322 319 314 312 314
182 186 190 194 200 203 203 202 202 202 200 194 183 192 210 220 223 226 230 232 235 245 258 270 280 291 301 312 322 345 53 87 99 109 115 120 120 119 115 109 104 101 107 127 148 154 155 157 244 306 319 328 334 331 327 326 327 324 321 321 322 326 329 331 329 325 318 314 314
181 184 187 191 195 197 195 191 189 186 181 176 174 191 214 227 230 233 237 243 251 261 270 277 285 299 321 354 50 92 107 113 120 127 130 129 126 120 112 106 108 116 132 153 164 154 135 86 339 330 330 331 332 330 325 324 327 330 332 333 335 336 337 335 327 319 315 316 317
173 177 181 183 185 184 181 177 176 174 173 177 186 200 214 228 233 236 242 252 262 268 270 268 266 280 87 94 102 110 117 123 130 134 136 136 130 123 118 121 132 138 144 151 153 133 107 59 304 316 334 341 341 332 325 326 330 333 336 338 338 338 333 325 316 315 319 325 329
162 166 170 173 175 175 174 174 176 177 180 186 196 206 215 224 231 233 235 236 236 228 211 186 156 141 134 129 124 123 125 127 130 133 135 134 133 132 136 144 149 153 151 148 148 156 172 193 209 225 268 329 331 321 315 315 311 308 309 312 311 310 307 306 312 321 330 333 336
152 155 158 162 167 171 174 176 178 178 181 185 190 195 198 201 202 198 189 175 168 165 162 155 146 145 147 148 144 139 134 132 131 133 133 133 135 139 144 148 152 158 162 161 167 188 204 211 222 235 253 275 288 296 297 299 292 290 293 298 299 302 308 318 329 337 339 337 338
144 146 148 151 155 158 160 162 164 164 166 167 168 169 169 169 169 166 161 158 158 159 155 149 145 146 150 154 154 148 142 138 137 135 133 131 132 136 140 144 149 158 167 170 173 186 202 229 268 288 295 295 296 302 308 313 314 319 323 326 330 335 338 342 345 346 345 343 343
139 140 142 144 145 146 147 149 150 152 153 155 157 159 161 161 161 160 157 155 155 154 152 149 147 148 150 151 151 148 143 140 138 135 132 129 127 128 129 129 131 131 132 130 121 110 99 89 69 35 3 345 342 345 348 351 355 356 354 353 353 352 352 351 351 350 348 346 345
136 138 139 141 142 143 144 145 146 147 149 151 153 154 155 156 158 158 156 153 153 153 152 149 148 148 148 146 143 139 135 131 128 125 122 120 118 116 114 111 108 104 103 103 103 102 99 95 85 71 52 35 23 18 14 12 11 8 5 2 0 359 357 355 353 351 349 347 346
136 137 139 141 142 143 143 144 144 145 146 146 148 148 149 151 153 152 150 148 149 150 149 147 144 141 140 138 134 129 124 120 117 114 112 110 108 106 104 103 103 102 101 100 100 99 94 86 73 58 43 33 28 24 20 17 15 12 9 6 4 1 359 357 354 352 350 349 349
137 138 139 140 141 141 141 141 142 142 142 142 143 143 144 145 147 146 144 142 143 143 142 140 136 133 131 130 126 122 117 114 111 109 108 108 106 104 103 103 103 102 99 94 90 84 76 66 54 43 34 27 25 25 24 22 19 16 12 9 5 2 359 357 356 355 354 354 354
136 137 137 138 138 138 138 139 139 139 139 139 139 139 140 140 140 140 139 138 138 137 135 132 129 127 125 124 121 117 114 112 110 109 108 108 106 104 103 102 99 94 86 77 70 63 57 50 43 36 30 25 24 25 25 24 22 19 15 12 7 4 2 1 1 1 1 1 1
135 135 135 136 136 136 136 136 137 137 136 136 136 136 136 135 135 135 134 134 134 133 130 126 123 121 119 117 115 114 113 111 109 107 106 103 101 98 95 89 83 76 69 64 57 52 48 44 40 33 27 23 23 24 25 24 21 20 18 14 10 8 8 9 10 10 10 10 10
135 135 134 134 135 135 135 136 135 135 134 133 134 134 133 132 132 132 132 132 131 129 126 122 120 117 116 114 113 112 111 109 107 104 101 97 92 87 81 73 65 61 59 56 53 49 45 40 36 30 25 24 25 26 26 25 24 23 22 19 16 15 17 18 18 17 15 14 13
135 135 134 134 134 135 135 135 135 134 133 133 133 132 131 131 131 131 130 129 127 124 122 120 118 117 116 115 114 113 111 108 105 102 98 94 90 85 82 78 72 66 61 55 49 44 40 36 32 28 27 29 31 30 29 28 28 29 29 26 23 22 21 20 18 16 14 11 11
136 135 135 135 135 135 135 135 135 134 134 133 133 131 130 130 130 130 128 125 123 121 120 119 118 118 117 117 116 114 111 108 104 101 97 93 91 88 85 83 80 75 69 62 49 40 35 32 28 26 28 33 35 35 32 30 30 32 33 31 28 25 22 18 15 13 12 10 6
137 136 136 136 136 136 135 135 135 134 133 133 132 131 130 129 129 128 126 123 122 121 120 119 119 118 117 116 114 111 109 107 104 101 97 94 91 88 85 82 79 75 70 63 52 42 36 31 28 27 29 34 37 38 36 34 33 33 33 31 28 25 21 17 13 10 8 5 2
137 137 137 137 136 135 135 135 134 133 133 133 132 130 130 129 128 126 124 122 122 121 120 119 120 119 116 114 111 108 107 106 104 101 98 94 90 87 84 81 79 76 71 65 55 46 39 33 29 29 31 35 38 40 40 38 36 34 32 29 26 22 19 16 12 8 4 2 359
138 138 138 137 136 135 135 135 134 134 133 132 131 130 129 127 125 124 123 122 122 120 119 119 119 117 114 111 109 108 106 104 103 101 98 94 90 87 85 84 82 78 72 65 57 49 42 37 32 31 33 37 40 41 40 39 36 34 32 28 24 20 18 15 12 8 4 0 358
140 140 139 137 136 135 135 135 134 133 132 131 130 129 127 126 125 124 124 124 122 121 120 119 117 114 112 110 108 107 105 104 104 103 99 93 89 86 84 82 81 78 72 65 58 52 46 40 34 32 33 38 42 44 42 40 38 36 32 28 24 21 18 15 13 10 6 2 358
141 141 139 138 136 135 134 134 133 132 131 130 129 128 128 127 126 125 124 123 121 120 119 118 115 113 111 109 107 105 104 104 105 104 101 97 91 87 84 81 79 76 72 66 60 54 47 41 35 32 33 38 42 43 42 41 41 38 34 29 24 22 20 17 14 11 7 3 358
143 142 140 137 136 135 134 133 132 131 131 131 130 130 129 128 126 124 122 120 118 117 116 114 112 111 109 108 106 106 105 105 105 105 104 101 96 91 84 78 74 71 69 66 61 54 47 40 34 32 32 37 41 43 43 43 42 40 36 31 26 22 19 16 12 9 5 2 357
143 142 140 137 136 135 134 133 132 132 132 132 132 131 130 128 125 122 120 118 117 115 113 111 110 109 108 108 108 107 106 105 105 106 107 106 101 94 86 77 70 67 65 64 59 54 47 40 33 30 31 36 41 42 42 41 40 37 34 29 26 21 15 10 6 3 1 360 355
143 142 140 138 137 136 135 134 134 134 133 132 131 130 129 128 125 123 120 119 118 116 114 112 110 108 107 106 107 107 106 104 105 107 107 106 103 96 86 78 68 63 62 62 59 54 49 41 34 29 30 34 37 39 38 37 35 31 27 23 19 15 11 5 0 358 359 360 356
144 142 140 139 138 137 136 135 135 135 133 130 128 128 127 126 125 123 122 121 120 117 114 112 110 108 107 106 104 103 103 103 103 104 104 103 98 91 84 78 71 65 61 59 57 53 47 40 34 30 29 31 32 31 30 28 26 22 19 15 12 9 6 3 359 357 359 2 0
145 143 140 139 138 138 137 136 136 134 132 129 127 126 126 125 124 123 121 121 118 115 112 110 109 107 106 104 102 100 100 99 99 100 101 99 94 88 82 77 72 64 58 56 55 52 45 36 31 27 26 26 24 21 20 19 17 15 12 9 6 4 2 360 358 357 359 3 3
146 144 142 140 139 138 138 137 136 133 131 129 128 127 126 125 123 121 121 120 117 114 112 110 109 108 106 104 100 99 98 99 98 98 97 96 91 86 81 76 70 63 57 54 53 49 42 33 28 25 23 21 19 16 15 16 15 11 8 5 2 0 359 358 357 356 357 0 2
147 146 144 142 140 139 139 138 136 133 131 130 129 129 128 125 123 121 120 119 117 115 114 112 110 108 105 102 99 98 98 100 99 98 95 92 89 85 81 75 69 63 58 54 50 45 38 29 26 25 23 20 17 15 15 16 15 11 6 1 359 358 358 358 357 356 355 356 358
147 147 146 144 142 141 139 138 136 134 132 131 131 130 128 125 123 122 121 119 116 115 113 111 108 105 102 100 99 97 97 99 100 98 95 93 91 88 82 75 69 63 58 52 47 42 35 27 25 25 24 20 17 16 17 17 15 10 4 360 358 357 357 357 357 355 354 353 355
147 147 146 145 143 142 140 138 136 135 134 133 131 130 129 126 125 123 122 120 116 113 110 108 106 104 103 101 99 97 96 97 100 100 99 97 95 89 81 73 68 63 56 49 44 40 36 31 29 28 26 21 20 19 19 17 13 7 4 1 359 357 356 356 356 355 354 353 354
148 147 147 145 144 142 140 137 136 135 135 133 132 130 128 126 125 124 122 120 117 114 111 109 109 108 106 103 100 98 97 97 98 100 101 100 95 86 77 69 65 60 54 48 43 40 38 36 34 31 28 25 24 23 21 17 12 7 4 2 0 358 356 355 354 354 354 354 354
Height
801 802 803 804 805 806 807 808 809 810 810 811 812 812 813 814 815 815 815 816 816 817 817 818 818 819 819 820 820 820 821 821 821 821 821 821 821 822 822 822 822 822 822 822 822 822 822 822 822 822 822 822 822 822 822 822 822 821 821 821 821 821 821 821 821 821 820 820 819
800 801 802 803 804 805 806 807 808 809 809 810 811 812 813 813 814 814 815 815 816 816 817 817 818 818 819 819 820 820 820 821 821 821 821 821 821 821 822 822 822 822 821 821 821 821 821 821 821 821 821 821 822 821 821 821 821 821 820 820 819 819 819 820 820 820 819 818 818
799 800 801 802 803 804 805 806 807 808 809 810 810 811 812 813 813 814 814 815 815 816 816 817 817 818 818 818 819 819 820 820 821 821 821 821 821 821 821 822 821 821 821 821 821 821 821 821 821 821 821 821 821 821 821 820 820 820 819 819 818 818 818 818 818 818 817 817 816
798 799 801 801 802 803 804 805 806 807 808 809 810 811 811 812 813 813 813 814 815 815 816 816 816 817 817 818 818 819 819 819 820 820 821 821 821 821 820 820 820 820 820 820 820 820 820 820 820 820 820 820 820 820 819 819 819 818 818 818 818 817 817 817 817 817 816 816 816
797 799 800 801 802 803 804 805 806 806 807 808 809 810 811 811 812 812 813 813 814 815 815 815 816 816 817 817 818 818 818 818 818 819 819 819 819 819 819 820 820 820 820 820 820 820 820 820 820 820 819 819 819 819 819 818 818 817 817 817 817 817 817 816 816 816 816 815 815
797 798 799 800 801 802 803 804 805 806 807 808 808 809 810 811 811 811 812 813 813 814 815 815 816 816 817 817 817 817 817 817 817 818 818 818 818 818 819 819 819 819 819 819 819 819 819 819 819 819 819 818 818 818 818 817 817 817 817 816 816 816 816 816 816 815 815 814 814
796 797 799 800 801 802 803 804 805 806 806 807 808 809 809 810 810 811 811 812 813 814 814 815 815 816 816 817 817 816 816 816 817 817 817 817 817 817 818 818 818 818 818 818 818 818 818 819 818 818 818 818 817 817 817 817 816 816 816 816 816 816 815 815 815 814 813 813 813
796 797 798 799 800 801 802 803 804 805 806 807 807 808 809 810 810 811 811 812 813 814 814 815 815 815 816 816 816 816 816 816 816 816 816 817 817 817 817 817 817 817 817 818 818 818 818 818 818 818 818 818 817 817 816 816 816 816 816 816 816 815 815 814 813 813 813 813 812
796 797 798 799 800 801 802 803 804 805 806 806 807 808 809 809 810 810 811 812 813 813 814 814 814 815 815 816 816 816 816 816 816 816 816 816 816 816 816 816 816 817 817 817 817 817 817 817 817 817 817 817 817 816 816 816 816 816 816 815 815 814 814 813 813 813 813 813 812
795 796 797 798 799 801 801 802 803 804 805 806 807 808 808 809 809 810 811 811 812 813 813 814 814 814 814 815 815 815 815 816 816 816 816 816 816 816 816 816 816 816 816 816 816 816 816 817 817 817 817 817 816 816 816 816 815 815 815 815 814 814 814 814 814 813 813 812 812
795 796 797 798 799 800 801 802 803 804 805 806 806 807 808 808 809 810 810 811 811 812 812 813 813 813 814 814 814 814 815 815 815 815 816 816 816 816 816 816 816 816 816 816 816 816 816 816 817 817 817 816 816 816 816 815 815 815 815 815 815 815 814 814 813 813 812 812 811
794 796 796 797 798 800 801 802 803 804 805 806 806 807 807 807 808 809 810 810 811 811 812 812 813 813 813 813 814 814 814 815 815 815 816 816 816 816 816 816 816 816 816 816 816 816 816 816 817 817 817 816 816 816 816 816 815 815 815 815 814 814 814 813 813 813 812 812 811
794 795 796 797 798 799 800 801 802 803 804 805 806 806 806 807 808 808 809 810 810 811 811 812 812 813 813 813 814 814 814 814 815 815 815 815 815 815 815 816 816 816 816 816 816 816 816 816 816 817 817 817 816 816 816 816 815 815 815 814 814 814 813 813 812 812 811 811 811
794 795 796 797 798 799 800 801 802 803 804 805 805 806 806 807 807 808 809 809 810 811 811 812 812 812 813 813 814 814 814 815 815 815 815 815 815 815 815 816 816 816 816 816 816 816 816 816 816 816 816 816 816 816 816 815 815 815 814 814 814 813 813 812 812 811 811 811 810
793 795 796 796 798 799 800 801 801 802 803 804 805 805 806 806 807 808 809 809 810 811 811 811 812 812 812 813 813 814 814 814 815 815 815 815 815 815 815 815 815 816 816 816 816 816 816 816 816 816 816 816 816 815 815 815 815 814 814 813 813 813 812 812 811 811 811 811 810
793 795 796 796 797 798 799 800 801 802 803 803 804 805 806 806 807 808 808 809 810 810 811 811 811 811 812 812 813 813 814 814 814 814 814 815 815 815 815 815 816 816 816 816 816 816 816 816 816 816 816 816 815 815 815 814 814 814 813 813 813 812 812 812 811 811 811 811 810
794 795 796 796 797 798 799 800 801 801 802 803 804 805 806 806 807 808 808 809 809 810 810 811 811 811 811 812 812 813 813 813 814 814 814 815 815 815 815 816 816 816 816 816 816 816 816 816 816 816 816 815 815 815 815 814 814 814 813 813 813 813 812 812 812 811 811 811 810
794 794 795 796 797 798 799 800 800 801 802 803 804 805 805 806 807 807 808 809 809 810 810 810 811 811 811 812 812 813 813 814 814 814 815 815 815 816 816 816 816 816 816 816 816 816 816 816 816 816 816 816 815 815 815 815 814 814 814 814 813 813 812 812 812 811 811 811 810
794 795 796 796 797 798 799 799 800 801 802 803 804 804 805 806 806 807 808 808 809 809 810 810 811 811 811 812 812 813 814 814 814 815 815 815 816 816 816 816 816 816 816 816 816 816 816 816 816 816 816 816 816 815 815 815 815 814 814 814 813 813 812 812 811 811 811 810 810
794 795 796 796 797 798 799 800 801 801 802 803 804 805 805 806 806 807 808 808 809 809 810 810 811 811 812 812 813 814 814 815 815 815 816 816 816 816 816 816 816 817 817 816 817 817 817 817 817 816 816 816 816 816 815 815 815 814 814 814 813 813 812 812 811 811 810 810 809
794 795 796 797 797 798 799 800 801 802 802 803 804 805 805 806 807 807 808 808 809 810 810 811 811 812 812 813 814 814 815 815 816 816 816 816 816 817 817 817 817 817 817 817 817 817 817 817 817 817 816 816 816 816 816 815 815 814 814 814 813 812 812 811 811 810 810 809 809
795 796 796 797 798 799 800 801 801 802 803 804 805 805 806 806 807 808 808 809 810 810 811 811 812 812 813 814 814 815 815 816 816 816 816 817 817 817 817 817 818 818 817 817 817 818 817 817 817 817 817 816 816 816 816 815 815 815 814 813 813 812 812 811 811 810 810 809 808
795 796 797 798 799 799 800 801 802 803 804 804 805 806 806 807 808 809 809 810 810 811 811 812 813 813 814 814 815 815 816 816 816 817 817 817 818 818 818 818 818 818 818 818 818 818 818 818 817 817 817 817 816 816 816 815 815 814 814 813 813 812 811 811 811 810 809 809 808
796 796 797 798 799 800 801 802 803 804 804 805 806 807 807 808 809 809 810 811 811 811 812 813 813 814 815 815 816 816 816 817 817 818 818 818 819 819 819 819 819 819 819 819 819 818 818 818 818 817 817 816 816 816 816 816 815 815 814 814 813 812 811 811 811 810 810 809 809
796 797 798 799 800 801 802 803 803 804 805 806 807 807 808 809 809 810 811 811 812 812 813 813 814 815 815 816 816 817 817 818 818 819 819 819 820 820 820 820 820 820 820 819 819 819 819 818 818 818 817 817 816 816 816 815 815 815 814 814 813 812 812 811 811 811 810 809 809
797 798 799 800 801 802 803 803 804 805 806 806 807 808 809 810 810 811 811 812 813 813 814 814 815 816 816 816 817 817 818 818 819 819 820 820 821 821 821 821 821 821 820 820 820 819 819 818 818 818 817 817 817 816 816 816 815 815 814 814 813 813 812 812 811 811 810 810 809
797 798 799 801 801 802 803 804 805 806 806 807 808 809 809 810 811 811 812 813 813 814 815 815 816 816 817 817 818 818 819 819 820 820 821 821 821 821 821 821 821 821 821 821 820 820 819 819 818 818 817 817 817 817 816 816 816 815 814 814 814 813 813 812 811 811 811 810 809
798 799 800 801 802 803 804 805 806 806 807 808 809 809 810 811 811 812 813 814 814 815 815 816 816 817 817 818 818 819 819 820 820 821 821 821 821 821 822 822 822 822 821 821 821 820 820 819 818 818 818 817 817 817 816 816 816 816 815 815 814 814 813 812 812 811 811 810 809
799 800 801 802 803 804 805 806 806 807 808 809 809 810 811 811 812 813 814 814 815 816 816 817 817 818 818 819 819 820 820 820 821 821 821 822 822 822 822 822 822 822 822 822 821 821 820 819 819 818 818 817 817 817 817 816 816 816 816 815 815 814 813 813 812 812 811 810 810
799 800 801 802 803 804 805 806 807 808 808 809 810 811 811 812 813 814 815 815 816 816 817 817 818 818 819 819 820 820 821 821 821 822 822 822 822 823 823 823 823 823 823 822 821 821 820 820 819 819 818 818 817 817 817 817 816 816 816 815 815 814 814 813 813 812 811 811 810
800 801 802 803 804 805 806 807 808 808 809 810 811 811 812 813 814 815 815 816 816 817 818 818 819 819 820 820 821 821 821 821 822 822 822 822 823 823 823 823 823 823 823 823 822 821 821 820 820 819 819 818 818 818 817 817 817 816 816 816 815 815 814 813 813 812 811 811 810
800 801 802 803 804 806 806 807 808 809 810 811 811 812 813 813 814 815 816 817 817 818 819 819 819 820 820 821 821 821 821 822 822 822 822 823 823 823 824 824 824 824 823 823 822 822 821 821 820 820 819 818 818 818 818 817 817 817 816 816 815 815 814 814 813 812 811 811 810
801 802 803 804 805 806 807 808 809 810 811 811 812 812 813 814 815 816 817 817 818 819 819 820 820 821 821 821 821 822 822 822 822 823 823 823 823 824 824 824 824 824 824 823 823 822 821 821 821 820 820 819 819 818 818 818 817 817 817 816 816 815 814 814 813 812 811 811 810
801 802 803 804 805 806 808 809 810 810 811 812 812 813 814 815 816 816 817 818 819 819 820 820 821 821 821 822 822 822 822 822 823 823 823 823 824 824 824 824 824 824 824 824 823 823 822 821 821 820 820 819 819 819 819 818 818 817 817 816 816 815 815 814 813 812 811 811 810
801 803 804 805 806 807 808 809 810 811 811 812 813 814 815 815 816 817 818 819 819 820 820 821 821 821 822 822 822 823 823 823 823 823 824 824 824 824 824 824 825 825 824 824 824 823 822 822 821 821 820 820 820 819 819 818 818 818 817 817 816 816 815 814 813 812 811 811 810
802 803 804 805 806 807 809 809 810 811 812 812 813 814 815 816 817 818 818 819 820 820 821 821 821 822 822 822 823 823 823 823 824 824 824 824 824 825 825 825 825 825 825 824 824 823 823 822 822 821 821 820 820 820 819 819 818 818 817 817 816 816 815 814 813 812 811 810 810
803 804 805 806 807 808 809 810 811 811 812 813 814 815 816 816 817 818 819 820 820 821 821 821 822 822 822 823 823 823 823 824 824 824 824 825 825 825 825 825 826 825 825 825 824 824 823 822 822 821 821 821 820 820 819 819 818 818 817 817 816 816 815 814 813 812 811 811 810
803 804 805 806 807 808 809 810 811 812 812 813 814 815 816 817 818 819 820 820 821 821 821 822 822 822 823 823 823 823 824 824 824 824 825 825 825 826 826 826 826 826 826 825 825 824 823 823 822 822 821 821 820 820 819 819 819 818 818 817 816 816 815 814 813 812 811 811 810
804 805 806 806 807 808 810 811 811 812 813 814 815 816 816 817 818 819 820 821 821 821 821 822 822 823 823 823 823 824 824 824 824 825 825 825 826 826 826 826 826 826 826 826 825 825 824 823 823 822 821 821 821 820 820 819 819 818 818 817 816 816 815 814 813 812 812 811 810
804 805 806 807 808 809 810 811 811 812 813 814 815 816 817 818 818 819 820 821 821 821 822 822 823 823 823 824 824 824 824 824 825 825 825 826 826 826 826 826 826 826 826 826 826 825 825 824 823 822 822 821 821 821 820 820 819 819 818 817 816 816 815 814 813 813 812 811 810
805 806 806 807 808 809 810 811 812 813 814 814 815 816 817 818 819 820 820 821 821 822 822 823 823 824 824 824 824 825 825 825 825 826 826 826 826 826 827 827 827 827 826 826 826 826 825 824 824 823 822 822 821 821 821 820 819 819 818 817 817 816 815 814 813 813 812 811 810